Location: Unspecified
(0.0000°N, 0.0000°E)
Time: 13:22:15
(UTC+00:00)

LightSail 2 - Pass Details

Date: 16 August 2019
Orbit: 701 x 732 km, 24.0° (Epoch: 21 August)

Event Time Altitude Azimuth Distance (km) Brightness Sun altitude
Exits shadow 05:18:24 - 306° (NW) 2,954 8.0 -11.2°
Reaches altitude 10° 05:20:29 10° 311° (NW) 2,192 7.3 -10.7°
Maximum altitude 05:25:29 48° 25° (NNE) 935 6.1 -9.4°
Drops below altitude 10° 05:30:32 10° 99° (E) 2,213 8.9 -8.2°
Sets 05:33:04 0° 105° (ESE) 3,138 9.7 -7.6°
